Regional Weather Roundup
Issued by NWS

Home | Current Version | Previous Version | Graphics & Text | Print | Product List | Glossary On
Versions: 1 2 3 4 5 6 7 8 9 10 11 12 13 14 15 16 17 18 19 20 21 22 23 24 25 26 27 28 29 30 31 32 33 34 35 36 37 38 39 40 41 42 43 44 45 46 47 48 49 50
000
ASUS45 KBOI 231710
RWRID

IDAHO REGIONAL WEATHER ROUNDUP
NATIONAL WEATHER SERVICE BOISE ID
1100 AM MDT SUN APR 23 2017

NOTE: "FAIR" INDICATES FEW OR NO CLOUDS BELOW 12000 FEET
WITH NO SIGNIFICANT WEATHER AND/OR OBSTRUCTIONS TO VISIBILITY

IDZ012-014-231800-
SOUTHWEST IDAHO


CITY           SKY/WX    TMP DP  RH WIND       PRES   REMARKS
BOISE          PTSUNNY   53  43  68 NW7       29.85F
CALDWELL       PTSUNNY   57  43  59 NW8       29.86F
MOUNTAIN HOME  PTSUNNY   57  44  61 CALM      29.85S
$$

IDZ016-017-231800-
SOUTHCENTRAL IDAHO


CITY           SKY/WX    TMP DP  RH WIND       PRES   REMARKS
BURLEY         CLOUDY    55  41  59 CALM      29.84F
JEROME         CLOUDY    55  44  66 S9        29.85S
TWIN FALLS     CLOUDY    54  40  59 SW16      29.86R
$$

IDZ019>023-231800-
SOUTHEAST IDAHO


CITY           SKY/WX    TMP DP  RH WIND       PRES   REMARKS
IDAHO FALLS    CLOUDY    53  36  52 CALM      29.87F
POCATELLO      CLOUDY    55  40  56 NW6       29.86F
REXBURG        CLOUDY    50  37  61 CALM      29.86F
$$

IDZ006-010-011-018-031-032-231800-
CENTRAL IDAHO MOUNTAINS


CITY           SKY/WX    TMP DP  RH WIND       PRES   REMARKS
MCCALL         PTSUNNY   44  35  70 S3        29.84F
HAILEY         PTSUNNY   48  37  66 NW6       29.88S
STANLEY          N/A     38  34  85 SW3       29.87R
SALMON         CLOUDY    48  39  71 S10       29.79R
CHALLIS        PTSUNNY   53  34  48 SE5       29.79F
$$

IDZ002-004-006-007-026-231800-
NORTHERN IDAHO


CITY           SKY/WX    TMP DP  RH WIND       PRES   REMARKS
LEWISTON       LGT RAIN  51  46  83 S8        29.90F
LOWELL           N/A     49  45  86 CALM      29.92F
COEUR D`ALENE  CLOUDY    50  40  68 W9        29.86S
MULLAN PASS    CLOUDY    36  32  85 VRB3      29.83S
$$



USA.gov is the U.S. government's official web portal to all federal, state and local government web resources and services.